AFL1886 UUEE-UCFM

Flight info

Callsign AFL1886
Flight time N/A
Altitude 35000
Route TOGMO M56 BEKAS L163 SIVKO L728 GEDSA L147 BASAN
Aircraft A321/M-SDE3FGHIRWY/LB1

Departure

Time N/A
Airport Sheremetyevo International Airport (UUEE)

Arrival

Time 2026-05-06 13:10
Airport Manas International Airport (UCFM)
Time Latitude Longitude Altitude Speed Heading
2026-05-06 12:59 43.39506 74.12039 11264 ft 377 kts 140°
2026-05-06 12:59 43.37460 74.14481 10826 ft 368 kts 140°
2026-05-06 13:00 43.35418 74.16917 10513 ft 355 kts 140°
2026-05-06 13:00 43.33357 74.19531 10321 ft 338 kts 132°
2026-05-06 13:00 43.31807 74.22617 10148 ft 323 kts 119°
2026-05-06 13:00 43.30592 74.25854 9850 ft 313 kts 117°
2026-05-06 13:01 43.30342 74.26540 9780 ft 311 kts 117°
2026-05-06 13:01 43.30027 74.27409 9683 ft 309 kts 117°
2026-05-06 13:01 43.29916 74.27718 9643 ft 308 kts 117°
2026-05-06 13:01 43.28845 74.30668 9248 ft 303 kts 117°
2026-05-06 13:02 43.27763 74.33614 8865 ft 298 kts 117°
2026-05-06 13:02 43.26778 74.36281 8528 ft 294 kts 116°
2026-05-06 13:02 43.25777 74.38973 8182 ft 289 kts 116°
2026-05-06 13:02 43.24880 74.41386 7860 ft 286 kts 116°
2026-05-06 13:03 43.23983 74.43794 7521 ft 284 kts 116°
2026-05-06 13:03 43.23089 74.46195 7159 ft 282 kts 116°
2026-05-06 13:03 43.22201 74.48570 6806 ft 280 kts 116°
2026-05-06 13:03 43.21292 74.51000 6449 ft 279 kts 115°
2026-05-06 13:04 43.20402 74.53378 6101 ft 277 kts 115°
2026-05-06 13:04 43.19531 74.55701 5741 ft 276 kts 115°
2026-05-06 13:04 43.18663 74.58019 5370 ft 275 kts 115°
2026-05-06 13:04 43.17788 74.60354 5004 ft 275 kts 115°
2026-05-06 13:05 43.16917 74.62676 4710 ft 271 kts 115°
2026-05-06 13:05 43.16057 74.64962 4554 ft 261 kts 116°
2026-05-06 13:05 43.15161 74.67120 4467 ft 249 kts 127°
2026-05-06 13:05 43.13944 74.68683 4458 ft 236 kts 147°
2026-05-06 13:06 43.12481 74.69597 4454 ft 224 kts 165°
2026-05-06 13:06 43.10937 74.69550 4429 ft 223 kts 205°
2026-05-06 13:06 43.09769 74.68185 4205 ft 220 kts 242°
2026-05-06 13:06 43.09111 74.66296 3924 ft 220 kts 247°
2026-05-06 13:07 43.08514 74.64353 3600 ft 221 kts 251°
2026-05-06 13:07 43.08069 74.62442 3528 ft 199 kts 257°
2026-05-06 13:07 43.07791 74.60704 3497 ft 173 kts 261°
2026-05-06 13:07 43.07595 74.59161 3336 ft 158 kts 262°
2026-05-06 13:08 43.07411 74.57675 3126 ft 152 kts 262°
2026-05-06 13:08 43.07230 74.56255 2921 ft 146 kts 262°
2026-05-06 13:08 43.07051 74.54875 2731 ft 145 kts 261°
2026-05-06 13:08 43.06871 74.53501 2503 ft 143 kts 261°
2026-05-06 13:09 43.06696 74.52155 2311 ft 142 kts 261°
2026-05-06 13:09 43.06519 74.50790 2184 ft 141 kts 261°
2026-05-06 13:09 43.06361 74.49475 2094 ft 134 kts 261°
2026-05-06 13:09 43.06215 74.48422 2093 ft 88 kts 260°
2026-05-06 13:10 43.06136 74.47821 2093 ft 36 kts 260°
2026-05-06 13:10 43.06107 74.47601 2093 ft 20 kts 260°
2026-05-06 13:10 43.06081 74.47412 2093 ft 19 kts 259°
2026-05-06 13:10 43.06060 74.47255 2093 ft 12 kts 261°
2026-05-06 13:11 43.06047 74.47149 2093 ft 10 kts 255°
2026-05-06 13:11 43.05990 74.47106 2093 ft 10 kts 173°
2026-05-06 13:11 43.05912 74.47124 2093 ft 11 kts 170°
2026-05-06 13:11 43.05839 74.47141 2093 ft 10 kts 170°
2026-05-06 13:12 43.05763 74.47160 2093 ft 11 kts 171°
2026-05-06 13:12 43.05713 74.47163 2093 ft 5 kts 205°
2026-05-06 13:12 43.05691 74.47111 2093 ft 7 kts 256°
2026-05-06 13:12 43.05680 74.47045 2093 ft 5 kts 259°
2026-05-06 13:13 43.05673 74.47003 2093 ft 2 kts 242°
2026-05-06 13:13 43.05654 74.46990 2093 ft 3 kts 187°
2026-05-06 13:13 43.05637 74.46992 2093 ft 1 kts 174°
2026-05-06 13:13 43.05635 74.46992 2093 ft 0 kts 172°